Tracking 31027 objects as of 19-Jul-2025
HD Live streaming from Space Station
objects crossing your sky now

METEOR 1-5 DEB

Track METEOR 1-5 DEB now!
10-day predictions


NORAD ID: 58397
Int'l Code: 1970-047D
Perigee: 825.1 km
Apogee: 866.4 km
Inclination: 81.2 °
Period: 101.7 minutes
Semi major axis: 7216 km
RCS: Unknown
Launch date: June 23, 1970
Source: Commonwealth of Independent States (former USSR) (CIS)
Launch site: PLESETSK MISSILE AND SPACE COMPLEX (PKMTR)

Note: This is SATELLITE DEBRIS
Your satellite tracking list
IRIDIUM 33 DEB
Track 1 satellite(s)




NASA's NSSDC Master Catalog

Two Line Element Set (TLE):
1 58397U 70047D   25199.43770310  .00000382  00000-0  18667-3 0  9995
2 58397  81.2146 205.5228 0028570 287.3881  72.4169 14.16090551 89209
Source of the keplerian elements: AFSPC